If you wish to contribute or participate in the discussions about articles you are invited to join SKYbrary as a registered user

 Actions

Akhiok Airport

From SKYbrary Wiki

PAKH
Airport
ICAO: PAKH – IATA: AKK
Summary
Name Akhiok Airport
Region North America
Territory Alaska US.gif
Location Akhiok, Alaska
Serving Akhiok
Elevation 13.411 m
44 ft
44 ft13.411 m
Type small airport
Coordinates 56° 56' 19.00" N, 154° 10' 57.00" W
Runways
Designator Length Width Surface ROPS
4/22 951 m3,120.079 ft
15 m49.213 ft
GRAVEL-G /


METAR
Observation PAKH 162056Z AUTO 05008KT 10SM BKN030 OVC039 11/06 A2969 RMK AO2 SLP056 60000 T01060061 56004 $
Station AKHIOK
Date/Time 16 June 2019 20:56:00
Wind direction 50°
Wind speed 08 kts
Lowest cloud amount broken clouds
Temperature 10.6°C
Dew point 6.1°C
Humidity 73%
QNH hPa
Weather condition n/a

Maps

Terrain

Loading map...

Airport Layout

Loading map...


Accidents & Serious Incidents at or in vicinity of PAKH

None on SKYbrary